Cloud_Cover
100 79 100 93 38 88 38 58 100 84 100 100 71 5 1 1 0 0 0 0 5 5 2 3 1 1 2 4 0 6 4 3 0 2 0 46 12 0 0 0 0 0 0
100 100 95 54 16 59 100 99 100 100 97 18 15 4 12 2 0 8 6 7 24 45 98 30 4 0 0 0 0 0 3 3 4 1 0 0 0 0 0 0 0 0 0
100 100 100 78 46 96 100 100 100 100 36 47 12 31 5 5 40 61 22 6 13 100 100 100 99 33 0 0 0 0 0 0 0 0 0 0 72 0 0 0 0 0 0
100 100 99 97 100 73 100 100 100 100 100 99 11 3 36 28 27 37 17 18 99 75 100 100 97 49 1 0 0 0 0 0 0 0 0 0 0 0 0 0 3 1 0
100 100 100 100 99 85 100 100 100 100 30 6 31 86 100 88 30 20 19 98 100 96 100 100 74 6 0 0 0 0 0 0 0 0 0 0 0 0 0 0 0 14 5
100 100 100 100 65 80 100 28 27 7 16 17 20 45 24 6 10 12 100 52 21 23 17 6 5 5 0 0 0 0 0 0 0 0 0 0 0 0 0 0 0 0 0
100 100 93 67 0 1 21 6 11 0 0 9 3 5 3 1 3 11 16 21 6 5 5 5 4 0 0 0 0 0 0 0 0 0 0 0 5 3 0 14 11 1 0
100 100 87 8 0 4 18 5 1 1 12 5 5 5 3 5 5 5 1 5 5 5 5 5 4 4 0 0 0 0 0 0 0 0 0 0 3 0 0 0 22 56 51
57 44 9 5 5 5 4 13 29 8 17 100 19 65 5 5 5 5 5 5 5 6 43 40 5 1 0 0 0 0 0 0 0 0 0 0 0 0 0 0 9 9 11
27 5 5 41 69 96 30 87 100 99 100 99 87 100 98 67 72 88 5 4 5 2 0 0 0 0 0 0 0 0 0 0 0 0 0 0 0 0 0 0 98 18 70
78 19 53 70 100 100 99 85 72 96 100 83 100 100 92 92 87 21 5 5 5 0 0 0 0 0 0 0 0 0 0 0 0 0 0 0 0 0 0 1 34 26 0
99 64 98 100 100 85 94 85 40 88 99 81 96 78 95 88 72 32 20 5 5 2 0 0 0 0 0 0 0 0 0 0 0 0 0 0 0 0 2 5 5 87 60
86 49 100 95 71 100 80 98 92 56 16 87 100 100 65 45 65 62 20 16 5 5 5 3 0 0 0 0 0 0 0 0 0 0 0 0 0 0 4 5 5 8 100
100 85 49 85 97 100 100 100 98 100 94 100 100 88 62 73 89 69 38 8 21 5 5 3 0 3 5 5 5 5 2 0 0 0 0 0 0 0 0 5 5 8 80
100 100 100 100 100 100 100 64 85 80 90 73 100 100 99 81 91 23 5 5 5 5 3 4 3 2 4 5 5 5 5 5 4 0 0 0 0 0 0 4 5 5 33
100 100 100 100 100 97 59 11 14 42 24 100 100 100 100 29 9 5 5 5 5 5 5 5 5 5 5 5 5 5 5 4 4 4 0 0 0 0 0 2 3 5 26
100 100 100 100 96 56 5 5 5 5 7 11 10 11 5 5 5 5 5 5 5 5 5 5 5 4 0 0 1 5 5 1 0 3 1 3 4 5 5 0 0 0 5
100 100 100 97 22 6 4 5 5 5 5 5 5 5 5 4 5 5 0 4 5 5 5 5 5 5 5 5 5 5 5 4 5 5 5 5 5 5 5 5 1 0 5
100 97 85 52 2 5 5 5 9 18 5 4 0 4 1 2 0 0 1 5 5 5 5 5 5 5 5 5 5 18 10 15 5 14 19 5 12 5 20 68 42 0 0
72 100 64 1 5 5 5 4 5 1 1 0 0 0 5 0 1 2 0 1 5 5 5 5 22 47 65 68 62 50 66 59 60 73 81 11 5 46 24 12 58 69 2
99 23 4 5 5 0 3 0 0 0 0 0 0 0 0 0 1 5 3 5 5 5 5 59 79 100 100 98 100 88 90 81 93 92 100 94 35 8 6 8 12 83 100
82 5 5 5 5 2 0 0 0 0 0 0 0 0 0 1 5 5 5 5 5 5 38 89 100 100 100 100 100 100 100 93 100 100 100 99 87 58 25 24 90 69 11
5 5 5 5 5 5 0 0 0 0 0 0 0 0 0 2 4 5 5 5 5 33 42 74 100 100 100 99 97 100 100 100 91 58 14 95 100 100 99 53 8 59 50
15 5 5 5 5 2 0 0 0 0 0 0 0 0 0 0 2 5 5 5 5 5 24 32 82 100 97 100 100 100 100 100 100 100 100 100 98 100 100 100 81 87 82
70 14 6 5 5 5 0 0 0 0 0 0 0 0 0 0 0 0 0 3 5 5 5 5 58 87 100 100 99 100 100 100 100 100 100 100 100 100 100 100 99 94 94
5 5 10 6 5 2 0 0 0 0 0 0 0 0 0 0 0 0 0 0 5 5 9 20 5 29 100 100 100 100 100 100 100 100 100 96 100 100 98 100 100 99 97